Location: Unspecified
(47.9110°N, 14.3980°E)
Time: 16:33:02
(UTC+00:00)

Cosmos 1900 - Pass Details

Date: 06 August 2020
Orbit: 680 x 742 km, 66.1° (Epoch: 18 September)

Event Time Altitude Azimuth Distance (km) Brightness Sun altitude
Rises 19:46:39 0° 212° (SSW) 3,058 7.5 -11.6°
Reaches altitude 10° 19:48:57 10° 212° (SSW) 2,154 6.7 -11.9°
Maximum altitude 19:53:52 86° 125° (SE) 715 4.3 -12.5°
Drops below altitude 10° 19:58:55 10° 37° (NE) 2,209 7.0 -13.1°
Sets 20:01:18 0° 37° (NE) 3,144 7.8 -13.4°
